User: anonymous   Login
Location: Leeds
(37.2390°N, 113.3580°W)
Time: 12:53:33
(UTC-06:00)
Language:

SL-08 RB Rocket - Orbit

View from above orbital plane
View from above orbital plane
View from above satellite
View from above satellite

Ground track
Ground track

The orbit data is extracted from the following two-line orbital elements,

1 26387U 00033D   16275.17868924  .00000208  00000-0  44377-4 0  9997
2 26387  98.0073 339.5925 0027879  80.8428 303.1090 14.68195432869871
Epoch (UTC): 01 October 2016 04:17:18
Eccentricity: 0.0027879
inclination: 98.0073°
perigee height: 647 km
apogee height: 686 km
right ascension of ascending node: 339.5925°
argument of perigee: 80.8428°
revolutions per day: 14.68195432
mean anomaly at epoch: 303.1090°
orbit number at epoch: 86987

The dashed part of the orbit path shows where the satellite is in the earth's shadow,  

DLR